This is the latest recevied weather packets stored in our database for station/object KD4EED. If no packets are shown the sender has not sent any weather packets the latest 10 day(s).
| Time | Temp. | Humidity | Pressure | Rain* | Wind** | Luminosity | Snow |
|---|---|---|---|---|---|---|---|
| 1788643493 | 32.22° C | 37% | 1010.3 hPa | - | - | 570 W/m² | - |
| 1788643192 | 31.67° C | 38% | 1010.5 hPa | - | - | 577 W/m² | - |
| 1788642888 | 31.67° C | 40% | 1010.5 hPa | - | - | 586 W/m² | - |
| 1788642583 | 31.67° C | 42% | 1010.4 hPa | - | - | 593 W/m² | - |
| 1788642278 | 31.67° C | 42% | 1010.4 hPa | - | - | 598 W/m² | - |
| 1788641978 | 31.67° C | 43% | 1010.7 hPa | - | - | 601 W/m² | - |
| 1788641673 | 31.67° C | 43% | 1010.8 hPa | - | - | 608 W/m² | - |
| 1788641372 | 31.67° C | 45% | 1010.7 hPa | - | - | 617 W/m² | - |
| 1788641068 | 31.67° C | 43% | 1011 hPa | - | - | 618 W/m² | - |
| 1788640767 | 32.22° C | 43% | 1010.9 hPa | - | - | 618 W/m² | - |
| 1788640462 | 32.22° C | 44% | 1010.8 hPa | - | - | 618 W/m² | - |
| 1788640158 | 32.22° C | 43% | 1010.9 hPa | - | - | 619 W/m² | - |
| 1788639853 | 32.22° C | 44% | 1010.9 hPa | - | - | 619 W/m² | - |
| 1788639548 | 31.67° C | 44% | 1011 hPa | - | - | 618 W/m² | - |
| 1788639244 | 32.22° C | 43% | 1011 hPa | - | - | 618 W/m² | - |
| 1788638943 | 32.22° C | 43% | 1011.1 hPa | - | - | 617 W/m² | - |
| 1788638639 | 32.22° C | 43% | 1011.1 hPa | - | - | 612 W/m² | - |
| 1788638337 | 32.22° C | 44% | 1011.1 hPa | - | - | 609 W/m² | - |
| 1788638033 | 31.67° C | 45% | 1011.2 hPa | - | - | 603 W/m² | - |
| 1788637728 | 31.67° C | 45% | 1011.3 hPa | - | - | 599 W/m² | - |
| 1788637428 | 31.67° C | 44% | 1011.4 hPa | - | - | 597 W/m² | - |
| 1788637127 | 31.67° C | 44% | 1011.4 hPa | - | - | 592 W/m² | - |
| 1788636822 | 31.67° C | 44% | 1011.3 hPa | - | - | 591 W/m² | - |
| 1788636518 | 31.11° C | 45% | 1011.2 hPa | - | - | 587 W/m² | - |
| 1788636214 | 31.11° C | 45% | 1011.5 hPa | - | - | 583 W/m² | - |
* Rain since midnight (hover to see other rain measurements)
** Current wind speed in m/s (hover to see current wind gust speed)